Ft Lauderdale, FL

7:58 AM EDT on March 26, 2017 (GMT -0400)
Fort Lauderdale-Hollywood International

Weather History for KFLL - June, 2014

Change the Weather History Date:

Sunday, June 15, 2014

  Actual Average Record
Temperature  
Mean Temperature 85 °F 83 °F  
Max Temperature 89 °F 89 °F 96 °F (1998)
Min Temperature 80 °F 78 °F 64 °F (1913)
Degree Days  
Heating Degree Days 0 0  
Month to date heating degree days 0 0  
Since 1 June heating degree days 0 0  
Since 1 July heating degree days 81 112  
Cooling Degree Days 20 18  
Month to date cooling degree days 246 267  
Year to date cooling degree days 1781 1685  
Since 1 June cooling degree days 246 267  
Growing Degree Days 34 (Base 50)    
Moisture  
Dew Point 74 °F    
Average Humidity 71    
Maximum Humidity 85    
Minimum Humidity 56    
Precipitation  
Precipitation 0.00 in 0.33 in 8.02 in (1936)
Month to date precipitation 3.68 4.91  
Year to date precipitation 24.28 22.40  
Snow  
Snow 0.00 in - - ()
Month to date snowfall 0.0  
Since 1 June snowfall 0.0  
Since 1 July snowfall 0.0  
Snow Depth 0.00 in    
Sea Level Pressure  
Sea Level Pressure 30.08 in    
Wind  
Wind Speed 12 mph (ESE)    
Max Wind Speed 17 mph    
Max Gust Speed 22 mph    
Visibility 10 miles    
Events      
T = Trace of Precipitation, MM = Missing Value Source: NWS Daily Summary

Daily Weather History Graph

Daily Weather History Graph

Search for Another Location

Airport or City:

Trip Planner

Search our weather history database for the weather conditions in past years. The results will help you decide how hot, cold, wet, or windy it might be!

Date:

Astronomy

Jun. 15, 2014 Rise Set
Actual Time 6:28 AM EDT 8:14 PM EDT
Civil Twilight 6:02 AM EDT 8:40 PM EDT
Nautical Twilight 5:30 AM EDT 9:11 PM EDT
Astronomical Twilight 4:57 AM EDT 9:44 PM EDT
Moon 10:39 PM EDT (6/15) 9:06 AM EDT (6/15)
Length of Visible Light 14h 38m
Length of Day
13h 45m
Waning Gibbous, 91% of the Moon is Illuminated
Jun 15
Waning Gibbous
Jun 19
Last Quarter
Jun 27
New
Jul 5
First Quarter
Jul 12
Full

Hourly Weather History & Observations

Time (EDT) Temp. Heat Index Dew Point Humidity Pressure Visibility Wind Dir Wind Speed Gust Speed Precip Events Conditions
12:53 AM 80.1 °F 84.5 °F 73.9 °F 81% 30.10 in 10.0 mi East 8.1 mph - N/A   Mostly Cloudy
1:53 AM 81.0 °F 86.2 °F 73.9 °F 79% 30.09 in 10.0 mi East 11.5 mph - N/A   Mostly Cloudy
2:53 AM 81.0 °F 86.2 °F 73.9 °F 79% 30.04 in 10.0 mi East 10.4 mph - N/A   Mostly Cloudy
3:53 AM 81.0 °F 86.7 °F 75.0 °F 82% 30.04 in 10.0 mi East 12.7 mph - N/A   Scattered Clouds
4:53 AM 81.0 °F 86.7 °F 75.0 °F 82% 30.03 in 10.0 mi ESE 13.8 mph - N/A   Scattered Clouds
5:53 AM 81.0 °F 87.3 °F 75.9 °F 85% 30.02 in 10.0 mi ESE 13.8 mph - N/A   Scattered Clouds
6:53 AM 82.0 °F 88.6 °F 75.0 °F 79% 30.04 in 10.0 mi ESE 11.5 mph - N/A   Scattered Clouds
7:53 AM 82.9 °F 88.0 °F 72.0 °F 69% 30.06 in 10.0 mi SE 11.5 mph - N/A   Scattered Clouds
8:53 AM 84.9 °F 91.4 °F 73.0 °F 67% 30.07 in 10.0 mi SE 12.7 mph - N/A   Mostly Cloudy
9:53 AM 87.1 °F 95.4 °F 73.9 °F 65% 30.09 in 10.0 mi ESE 11.5 mph - N/A   Mostly Cloudy
10:53 AM 87.1 °F 95.4 °F 73.9 °F 65% 30.11 in 10.0 mi ESE 15.0 mph - N/A   Mostly Cloudy
11:53 AM 87.1 °F 94.5 °F 73.0 °F 63% 30.12 in 10.0 mi SE 12.7 mph - N/A   Mostly Cloudy
12:53 PM 88.0 °F 96.5 °F 73.9 °F 63% 30.12 in 10.0 mi SSE 12.7 mph - N/A   Mostly Cloudy
1:53 PM 88.0 °F 96.5 °F 73.9 °F 63% 30.10 in 10.0 mi SSE 13.8 mph - N/A   Mostly Cloudy
2:53 PM 89.1 °F 96.0 °F 72.0 °F 57% 30.10 in 10.0 mi SE 15.0 mph 18.4 mph N/A   Mostly Cloudy
3:53 PM 86.0 °F 92.2 °F 72.0 °F 63% 30.09 in 10.0 mi ESE 9.2 mph - N/A   Mostly Cloudy
4:53 PM 86.0 °F 93.0 °F 73.0 °F 65% 30.06 in 10.0 mi ESE 13.8 mph - N/A   Mostly Cloudy
5:53 PM 84.9 °F 92.1 °F 73.9 °F 69% 30.09 in 10.0 mi East 8.1 mph - N/A   Mostly Cloudy
6:53 PM 84.9 °F 92.1 °F 73.9 °F 69% 30.09 in 10.0 mi East 10.4 mph - N/A   Mostly Cloudy
7:53 PM 82.9 °F 90.2 °F 75.0 °F 77% 30.09 in 10.0 mi East 8.1 mph - N/A   Mostly Cloudy
8:53 PM 82.9 °F 89.4 °F 73.9 °F 74% 30.10 in 10.0 mi East 9.2 mph - N/A   Mostly Cloudy
9:53 PM 82.9 °F 89.4 °F 73.9 °F 74% 30.11 in 10.0 mi East 10.4 mph - N/A   Mostly Cloudy
10:53 PM 82.9 °F 90.2 °F 75.0 °F 77% 30.13 in 10.0 mi East 9.2 mph - N/A   Mostly Cloudy
11:53 PM 82.9 °F 90.2 °F 75.0 °F 77% 30.12 in 10.0 mi ESE 10.4 mph - N/A   Mostly Cloudy